WST202 MYNN-MYEH

Flight info

Callsign WST202
Flight time 0h 16m
Altitude 9000
Route FREDY2 JEDIK
Aircraft E145/M-SDFGIRW/S

Departure

Time 2026-05-04 00:10
Airport Lynden Pindling International Airport (MYNN)

Arrival

Time 2026-05-04 00:26
Airport North Eleuthera Airport (MYEH)
Time Latitude Longitude Altitude Speed Heading
2026-05-03 23:45 25.04714 -77.46550 7 ft 0 kts 358°
2026-05-03 23:59 25.04715 -77.46551 7 ft 0 kts 329°
2026-05-03 23:59 25.04716 -77.46554 7 ft 0 kts 289°
2026-05-03 23:59 25.04713 -77.46558 7 ft 0 kts 223°
2026-05-04 00:00 25.04706 -77.46558 7 ft 2 kts 179°
2026-05-04 00:00 25.04703 -77.46558 7 ft 2 kts 179°
2026-05-04 00:00 25.04681 -77.46559 7 ft 3 kts 202°
2026-05-04 00:00 25.04661 -77.46587 7 ft 5 kts 263°
2026-05-04 00:01 25.04684 -77.46623 7 ft 6 kts 316°
2026-05-04 00:01 25.04728 -77.46674 7 ft 10 kts 299°
2026-05-04 00:01 25.04710 -77.46750 7 ft 11 kts 252°
2026-05-04 00:01 25.04749 -77.46827 7 ft 12 kts 316°
2026-05-04 00:02 25.04818 -77.46899 7 ft 14 kts 316°
2026-05-04 00:02 25.04895 -77.46983 7 ft 16 kts 314°
2026-05-04 00:02 25.04975 -77.47077 7 ft 17 kts 314°
2026-05-04 00:02 25.05063 -77.47176 7 ft 18 kts 315°
2026-05-04 00:03 25.05159 -77.47284 7 ft 20 kts 314°
2026-05-04 00:03 25.05220 -77.47382 7 ft 12 kts 278°
2026-05-04 00:03 25.05218 -77.47427 7 ft 0 kts 258°
2026-05-04 00:07 25.05216 -77.47433 7 ft 1 kts 258°
2026-05-04 00:08 25.05210 -77.47466 7 ft 6 kts 258°
2026-05-04 00:08 25.05185 -77.47514 7 ft 8 kts 225°
2026-05-04 00:08 25.05154 -77.47533 7 ft 1 kts 163°
2026-05-04 00:08 25.05136 -77.47518 7 ft 5 kts 141°
2026-05-04 00:09 25.05105 -77.47487 7 ft 0 kts 136°
2026-05-04 00:09 25.05020 -77.47390 7 ft 51 kts 135°
2026-05-04 00:09 25.04604 -77.46928 7 ft 114 kts 134°
2026-05-04 00:10 25.03925 -77.46172 13 ft 159 kts 134°
2026-05-04 00:10 25.03125 -77.45273 353 ft 169 kts 133°
2026-05-04 00:10 25.02304 -77.44315 925 ft 172 kts 131°
2026-05-04 00:10 25.01588 -77.43281 1471 ft 178 kts 115°
2026-05-04 00:11 25.01483 -77.41798 1503 ft 216 kts 73°
2026-05-04 00:11 25.02344 -77.40305 1713 ft 245 kts 51°
2026-05-04 00:11 25.03428 -77.38801 2348 ft 253 kts 53°
2026-05-04 00:11 25.04503 -77.37275 3058 ft 256 kts 52°
2026-05-04 00:12 25.05594 -77.35689 3731 ft 261 kts 52°
2026-05-04 00:12 25.06689 -77.34067 4408 ft 266 kts 52°
2026-05-04 00:12 25.07777 -77.32440 5068 ft 270 kts 52°
2026-05-04 00:12 25.08894 -77.30768 5738 ft 273 kts 52°
2026-05-04 00:13 25.10037 -77.29052 6363 ft 278 kts 53°
2026-05-04 00:13 25.11185 -77.27346 7043 ft 280 kts 51°
2026-05-04 00:13 25.12305 -77.25568 7667 ft 284 kts 55°
2026-05-04 00:13 25.13417 -77.23760 8254 ft 288 kts 54°
2026-05-04 00:14 25.14545 -77.21931 8849 ft 292 kts 55°
2026-05-04 00:14 25.15743 -77.19991 8971 ft 315 kts 55°
2026-05-04 00:14 25.17024 -77.17914 8973 ft 333 kts 55°
2026-05-04 00:14 25.18314 -77.15822 8962 ft 334 kts 55°
2026-05-04 00:15 25.19627 -77.13691 8962 ft 333 kts 55°
2026-05-04 00:15 25.20931 -77.11575 8965 ft 333 kts 55°
2026-05-04 00:15 25.22228 -77.09469 8962 ft 333 kts 55°
2026-05-04 00:15 25.23540 -77.07338 8961 ft 332 kts 55°
2026-05-04 00:16 25.24830 -77.05241 8964 ft 332 kts 54°
2026-05-04 00:16 25.26127 -77.03133 8963 ft 332 kts 54°
2026-05-04 00:16 25.27437 -77.01001 8960 ft 332 kts 54°
2026-05-04 00:16 25.28725 -76.98905 8962 ft 332 kts 54°
2026-05-04 00:17 25.30041 -76.96764 8717 ft 332 kts 55°
2026-05-04 00:17 25.31301 -76.94710 8371 ft 321 kts 54°
2026-05-04 00:17 25.32550 -76.92676 8003 ft 313 kts 54°
2026-05-04 00:17 25.33740 -76.90735 7576 ft 298 kts 55°
2026-05-04 00:18 25.34909 -76.88956 7202 ft 277 kts 48°
2026-05-04 00:18 25.36132 -76.87377 6827 ft 262 kts 48°
2026-05-04 00:18 25.37295 -76.85874 6451 ft 250 kts 48°
2026-05-04 00:18 25.38390 -76.84457 6086 ft 241 kts 47°
2026-05-04 00:19 25.39467 -76.83057 5718 ft 234 kts 47°
2026-05-04 00:19 25.40522 -76.81685 5398 ft 235 kts 48°
2026-05-04 00:19 25.41599 -76.80298 5045 ft 238 kts 48°
2026-05-04 00:19 25.42688 -76.78911 4689 ft 241 kts 48°
2026-05-04 00:20 25.43803 -76.77501 4333 ft 243 kts 48°
2026-05-04 00:20 25.44909 -76.76073 3973 ft 245 kts 49°
2026-05-04 00:20 25.46032 -76.74620 3500 ft 251 kts 49°
2026-05-04 00:20 25.47192 -76.73139 3023 ft 256 kts 49°
2026-05-04 00:21 25.48394 -76.71638 2544 ft 260 kts 49°
2026-05-04 00:21 25.49420 -76.70003 2075 ft 260 kts 61°
2026-05-04 00:21 25.50317 -76.68269 1671 ft 259 kts 60°
2026-05-04 00:21 25.51199 -76.66579 1480 ft 249 kts 61°
2026-05-04 00:22 25.52046 -76.64964 1465 ft 233 kts 60°
2026-05-04 00:22 25.52837 -76.63468 1465 ft 218 kts 60°
2026-05-04 00:22 25.53574 -76.62077 1504 ft 203 kts 60°
2026-05-04 00:22 25.54276 -76.60751 1471 ft 195 kts 61°
2026-05-04 00:23 25.54578 -76.59362 1463 ft 184 kts 99°
2026-05-04 00:23 25.53960 -76.58221 1475 ft 175 kts 143°
2026-05-04 00:23 25.52811 -76.57928 1481 ft 170 kts 190°
2026-05-04 00:23 25.51827 -76.58608 1495 ft 169 kts 231°
2026-05-04 00:24 25.51120 -76.59663 1289 ft 168 kts 234°
2026-05-04 00:24 25.50524 -76.60674 1160 ft 144 kts 236°
2026-05-04 00:24 25.49984 -76.61604 966 ft 142 kts 239°
2026-05-04 00:24 25.49549 -76.62591 729 ft 143 kts 245°
2026-05-04 00:25 25.49155 -76.63609 584 ft 142 kts 248°
2026-05-04 00:25 25.48820 -76.64651 426 ft 143 kts 250°
2026-05-04 00:25 25.48458 -76.65683 311 ft 144 kts 248°
2026-05-04 00:25 25.48078 -76.66694 163 ft 144 kts 249°
2026-05-04 00:26 25.47716 -76.67713 40 ft 133 kts 249°
2026-05-04 00:26 25.47424 -76.68523 23 ft 73 kts 247°
2026-05-04 00:26 25.47346 -76.68707 23 ft 5 kts 258°
2026-05-04 00:26 25.47350 -76.68713 23 ft 0 kts 347°
2026-05-04 00:27 25.47364 -76.68689 23 ft 11 kts 68°
2026-05-04 00:27 25.47408 -76.68566 24 ft 18 kts 68°
2026-05-04 00:27 25.47459 -76.68427 23 ft 20 kts 68°
2026-05-04 00:27 25.47514 -76.68273 21 ft 22 kts 68°
2026-05-04 00:28 25.47570 -76.68159 20 ft 7 kts
2026-05-04 00:28 25.47617 -76.68179 20 ft 2 kts 335°
2026-05-04 00:28 25.47621 -76.68181 20 ft 1 kts 335°
2026-05-04 00:28 25.47622 -76.68183 20 ft 1 kts 318°
2026-05-04 00:29 25.47624 -76.68205 20 ft 3 kts 256°
2026-05-04 00:29 25.47631 -76.68220 21 ft 1 kts 347°
2026-05-04 00:29 25.47636 -76.68216 21 ft 0 kts 51°
2026-05-04 00:29 25.47642 -76.68201 21 ft 3 kts 67°
2026-05-04 00:30 25.47643 -76.68197 21 ft 0 kts 67°